This is the latest recevied weather packets stored in our database for station/object SP1BMW-13. If no packets are shown the sender has not sent any weather packets the latest 10 day(s).
| Time | Temp. | Humidity | Pressure | Rain* | Wind** | Luminosity | Snow |
|---|---|---|---|---|---|---|---|
| 1787494786 | 19.44° C | 52% | 1017.1 hPa | 0 mm | 2.24 m/s, 270° | 520 W/m² | - |
| 1787494725 | 19.44° C | 53% | 1017.2 hPa | 0 mm | 1.79 m/s, 123° | 671 W/m² | - |
| 1787494666 | 19.44° C | 53% | 1017 hPa | 0 mm | 0.89 m/s, 277° | 675 W/m² | - |
| 1787494606 | 19.44° C | 53% | 1017.3 hPa | 0 mm | 2.68 m/s, 222° | 321 W/m² | - |
| 1787494546 | 19.44° C | 53% | 1017.1 hPa | 0 mm | 1.79 m/s, 281° | 333 W/m² | - |
| 1787494485 | 19.44° C | 54% | 1017.1 hPa | 0 mm | 2.68 m/s, 288° | 278 W/m² | - |
| 1787494425 | 19.44° C | 55% | 1017.1 hPa | 0 mm | 0.45 m/s, 273° | 278 W/m² | - |
| 1787494366 | 19.44° C | 54% | 1017.1 hPa | 0 mm | 2.24 m/s, 223° | 279 W/m² | - |
| 1787494305 | 19.44° C | 55% | 1017.2 hPa | 0 mm | 0.45 m/s, 292° | 337 W/m² | - |
| 1787494246 | 19.44° C | 53% | 1017.2 hPa | 0 mm | 2.24 m/s, 207° | 298 W/m² | - |
| 1787494186 | 19.44° C | 54% | 1017.1 hPa | 0 mm | 2.24 m/s, 220° | 283 W/m² | - |
| 1787494125 | 19.44° C | 55% | 1017.2 hPa | 0 mm | 0.89 m/s, 227° | 281 W/m² | - |
| 1787494065 | 19.44° C | 55% | 1017.3 hPa | 0 mm | 0.89 m/s, 268° | 428 W/m² | - |
| 1787494005 | 19.44° C | 54% | 1017.2 hPa | 0 mm | 1.79 m/s, 290° | 301 W/m² | - |
| 1787493946 | 19.44° C | 54% | 1017.2 hPa | 0 mm | 1.79 m/s, 298° | 282 W/m² | - |
| 1787493885 | 19.44° C | 55% | 1017.2 hPa | 0 mm | 1.34 m/s, 333° | 274 W/m² | - |
| 1787493826 | 19.44° C | 53% | 1017.4 hPa | 0 mm | 0.89 m/s, 256° | 246 W/m² | - |
| 1787493766 | 19.44° C | 53% | 1017.2 hPa | 0 mm | 0.89 m/s, 187° | 224 W/m² | - |
| 1787493706 | 19.44° C | 52% | 1017.3 hPa | 0 mm | 3.13 m/s, 205° | 220 W/m² | - |
| 1787493646 | 20° C | 53% | 1017.2 hPa | 0 mm | 0.89 m/s, 216° | 205 W/m² | - |
| 1787493586 | 20° C | 52% | 1017.1 hPa | 0 mm | 1.79 m/s, 266° | 195 W/m² | - |
| 1787493526 | 20° C | 51% | 1017.3 hPa | 0 mm | 2.24 m/s, 246° | 195 W/m² | - |
| 1787493466 | 20.56° C | 51% | 1017.3 hPa | 0 mm | 1.79 m/s, 285° | 207 W/m² | - |
| 1787493406 | 20.56° C | 51% | 1017.4 hPa | 0 mm | 0.45 m/s, 263° | 227 W/m² | - |
| 1787493346 | 20.56° C | 50% | 1017.3 hPa | 0 mm | 0.89 m/s, 257° | 230 W/m² | - |
* Rain latest hour (hover to see other rain measurements)
** Current wind speed in m/s (hover to see current wind gust speed)